Regional Weather Roundup
Issued by NWS

Home | Current Version | Previous Version | Text Only | Print | Product List | Glossary Off
Versions: 1 2 3 4 5 6 7 8 9 10 11 12 13 14 15 16 17 18 19 20 21 22 23 24 25 26 27 28 29 30 31 32 33 34 35 36 37 38 39 40 41 42 43 44 45 46 47 48 49 50

000
ASUS43 KLSX 231507
RWRMO

WEATHER SUMMARY FOR MISSOURI
NATIONAL WEATHER SERVICE SPRINGFIELD MO
1000 AM CDT WED AUG 23 2017

NOTE: "FAIR" INDICATES FEW OR NO CLOUDS BELOW 12,000 FEET WITH NO
       SIGNIFICANT WEATHER AND/OR OBSTRUCTIONS TO VISIBILITY.
       CURRENT SKY AND/OR WEATHER CONDITIONS ARE NOT AVAILABLE FOR
       CHILLICOTHE AND FARMINGTON.

MOZ001>031-035>038-043-044-053-054-231600-
...NORTHERN AND WESTERN MISSOURI...

CITY           SKY/WX    TMP DP  RH WIND       PRES   REMARKS
KANSAS CTY INT SUNNY     68  57  68 CALM      30.17S
KANSAS C DTWN  SUNNY     69  58  67 CALM      30.16S
LEE`S SUMMIT   SUNNY     71  57  61 MISG      30.18R
ST JOSEPH      SUNNY     66  62  87 CALM      30.17F
CHILLICOTHE      N/A     69  59  70 CALM      30.17S
KIRKSVILLE     SUNNY     71  55  56 NW6       30.17R

$$
MOZ066>068-077>081-088>096-101>105-231600-
...SOUTHWEST MISSOURI...

CITY           SKY/WX    TMP DP  RH WIND       PRES   REMARKS
SPRINGFIELD    SUNNY     71  58  63 NE10      30.14F
JOPLIN         SUNNY     72  59  63 NE10      30.14S
BRANSON        PTSUNNY   72  59  64 NE7       30.14S

$$
MOZ032>034-039>042-045>050-055>058-069>072-231600-
...CENTRAL MISSOURI...

CITY           SKY/WX    TMP DP  RH WIND       PRES   REMARKS
COLUMBIA       MOSUNNY   71  57  61 VRB3      30.16S
JEFFERSON CITY SUNNY     70  60  70 W3        30.15S
ROLLA          SUNNY     70  56  61 N5        30.16S
SEDALIA        SUNNY     72  58  61 NE5       30.17S
WHITEMAN AFB   MOSUNNY   69  60  73 NE3       30.15S
WARRENSBURG    SUNNY     68  54  60 CALM      30.16S
OSAGE BEACH    SUNNY     70  55  59 NE7       30.16F

$$
MOZ051-052-059>065-231600-
...EAST CENTRAL MISSOURI...

CITY           SKY/WX    TMP DP  RH WIND       PRES   REMARKS
ST LOUIS INTL  MOSUNNY   71  56  58 N7        30.13S
SPIRIT OF STL  MOSUNNY   72  57  59 VRB3      30.12S
ST CHARLES     SUNNY     72  55  55 VRB3      30.12S

$$
MOZ072>076-082>087-097>100-106>115-231600-
...SOUTH CENTRAL AND SOUTHEAST MISSOURI...

CITY           SKY/WX    TMP DP  RH WIND       PRES   REMARKS
CAPE GIRARDEAU SUNNY     74  58  57 NW5       30.10R
FARMINGTON     SUNNY     70  58  65 N5        30.14
POPLAR BLUFF   CLOUDY    73  60  63 N8        30.10R
WEST PLAINS    PTSUNNY   70  58  65 NE9       30.15S

$$


USA.gov is the U.S. government's official web portal to all federal, state and local government web resources and services.